Location: Choisy
(48.7685°N, 2.4187°E)
Time: 01:36:39
(UTC+00:00)

Daily predictions for brighter satellites

Satellite Brightness Start Highest point End
(mag) Time Altitude Azimuth Time Altitude Azimuth Time Altitude Azimuth
CZ-4C R/B 4.5 00:30:27 20° NNW 00:32:02 22° N 00:37:20 10° NE
USA 234 4.3 00:38:27 10° ENE 00:43:28 40° NNE 00:43:28 40° NNE
Cosmos 2263 Rocket 4.2 00:58:43 10° N 01:03:18 24° NE 01:03:49 24° NE
Cosmos 1980 Rocket 4.4 01:05:33 18° ENE 01:05:33 18° ENE 01:07:45 10° NE
Lacrosse 5 4.3 01:22:28 19° ENE 01:22:28 19° ENE 01:23:50 10° ENE
Resurs 1-4 Rocket 3.8 01:24:22 10° NNE 01:26:57 29° NNE 01:26:57 29° NNE
SL-16 R/B 3.8 01:35:43 31° NNW 01:35:43 31° NNW 01:38:45 10° NNW
CZ-2D R/B 3.7 01:30:54 10° NNE 01:33:36 31° NNE 01:33:36 31° NNE
ARIANE 5 R/B 4.4 01:46:19 10° NE 01:50:06 22° E 01:50:06 22° E
ATLAS 5 CENTAUR R/B 4.0 01:57:35 20° N 01:57:35 20° N 02:00:13 10° NNE
ATLAS 2AS CENTAUR R/B 4.0 01:56:03 10° NW 02:03:14 40° NNE 02:09:56 10° E
Cosmos 2278 4.3 02:10:19 55° NE 02:10:19 55° NE 02:14:48 10° NNE
Cosmos 2369 4.3 02:20:39 52° N 02:20:39 52° N 02:25:09 10° NNE
ADEOS II 2.7 02:14:16 10° NNE 02:18:20 53° NNE 02:18:20 53° NNE
SJ 16-02 3.9 02:15:27 10° NNW 02:16:14 15° N 02:16:14 15° N
SL-4 R/B 4.4 02:21:54 20° ESE 02:21:54 20° ESE 02:23:59 10° E
IDEFIX/ARIANE 42P 3.9 02:16:40 10° NNE 02:21:26 33° E 02:22:24 31° ESE
CZ-4C R/B 4.4 02:17:05 10° NW 02:22:44 29° NNE 02:29:14 10° E
USA 234 3.7 02:20:35 10° E 02:26:59 59° NNE 02:30:48 25° NW
Nadezhda 3 Rocket 4.0 02:27:57 67° NNW 02:27:57 67° NNW 02:33:21 10° N
Cosmos 2228 Rocket 4.3 02:33:13 40° ENE 02:33:13 40° ENE 02:36:40 10° NNE
Cosmos 1238 Rocket 3.9 02:26:25 10° N 02:33:00 82° E 02:33:17 79° ESE
Cosmos 1605 Rocket 4.5 02:26:49 10° N 02:33:10 60° ENE 02:37:19 22° SSE
USA 305 4.4 02:36:27 34° NE 02:36:27 34° NE 02:39:08 10° ENE
Cosmos 1535 Rocket 4.5 02:29:15 10° N 02:35:42 86° E 02:36:27 72° SSE
CZ-4B R/B 4.0 02:30:37 10° NNE 02:34:35 54° N 02:34:35 54° N
H-2A R/B 4.2 02:34:55 10° ESE 02:38:39 27° ENE 02:42:27 10° N
USA 306 4.3 02:40:43 37° NE 02:40:43 37° NE 02:43:34 10° ENE
Cosmos 1697 Rocket 3.4 02:40:57 41° NNW 02:40:57 41° NNW 02:45:30 10° NNE
ATLAS CENTAUR R/B 4.3 02:29:00 10° WNW 02:43:19 51° N 02:48:43 10° ENE
Cosmos 1980 Rocket 2.3 02:47:20 64° NW 02:47:20 64° NW 02:52:35 10° NNE
Cosmos 2263 Rocket 3.2 02:42:11 10° NNW 02:45:20 35° NW 02:45:20 35° NW
ASTEX 1 3.5 02:46:21 10° N 02:51:23 76° E 02:51:25 76° E
Cosmos 1844 Rocket 4.3 02:46:40 10° NNW 02:51:46 33° NE 02:56:51 10° ESE
Cosmos 1898 Rocket 3.6 02:51:03 10° NNW 02:56:20 74° ENE 03:01:37 10° SSE
Cosmos 2322 Rocket 3.2 02:54:21 30° SSE 02:56:30 42° ESE 03:01:51 10° NE
Meteor 2-9 4.4 02:51:59 10° NNW 02:57:30 84° W 02:57:41 82° SW
Cosmos 1666 3.9 02:55:08 10° N 02:58:46 40° ENE 02:59:07 39° E
Spot 4 Rocket 4.4 02:54:31 10° NNE 02:59:38 60° ESE 03:01:00 44° SSE
Meteor 1-11 Rocket 4.3 02:55:03 10° N 03:00:46 57° ENE 03:06:17 10° SSE
Lacrosse 5 2.6 03:01:39 41° NNW 03:02:02 42° NNW 03:06:52 10° NE
Cosmos 921 Rocket 3.4 03:05:07 54° N 03:05:07 54° N 03:08:27 10° NNE
IRS-1C 4.0 02:59:43 10° N 03:05:03 71° WNW 03:05:14 70° W
Cosmos 1812 3.3 03:08:14 54° NE 03:08:14 54° NE 03:11:22 10° NNE
SL-16 R/B 2.5 03:06:39 41° S 03:08:28 62° ESE 03:14:04 10° NNE
USA 307 3.7 03:08:54 44° N 03:08:54 44° N 03:12:58 10° ENE
Resurs 1-4 Rocket 3.7 03:05:04 10° N 03:08:01 21° NW 03:08:01 21° NW
ERBS 3.8 03:12:22 35° NE 03:12:22 35° NE 03:14:30 10° NE
USA 308 3.7 03:12:08 43° NNW 03:12:15 43° N 03:16:21 10° ENE
Cosmos 1727 Rocket 4.4 03:09:26 16° S 03:14:30 64° E 03:20:45 10° NNE
Cosmos 1339 Rocket 4.3 03:12:47 45° SSW 03:14:51 80° W 03:21:04 10° N
CZ-2D R/B 3.8 03:11:59 10° NNW 03:14:55 19° NW 03:14:55 19° NW
Cosmos 1937 Rocket 3.5 03:10:41 10° NNW 03:15:52 78° ENE 03:20:59 10° SSE
FALCON 9 DEB 4.1 03:20:10 44° E 03:20:10 44° E 03:22:47 10° ENE
CZ-4C R/B 3.4 03:20:02 61° E 03:20:11 62° ENE 03:23:40 10° N
IRIDIUM 114 4.3 03:15:23 10° N 03:20:39 84° E 03:24:29 19° S
Cosmos 1536 3.4 03:19:48 10° N 03:23:51 56° ENE 03:27:50 10° SSE
CZ-2D R/B 3.4 03:22:55 10° N 03:27:11 71° WNW 03:27:24 69° W
Cosmos 1763 Rocket 3.5 03:25:16 41° SSW 03:27:12 82° ESE 03:32:32 10° NNE
USA 32 4.2 03:23:46 10° N 03:29:03 73° E 03:34:17 10° SSE
ARIANE 5 R/B 2.6 03:24:46 10° N 03:29:43 55° WNW 03:30:25 51° W
IRIDIUM 103 4.2 03:24:33 10° N 03:29:48 83° W 03:33:37 19° S
NOSS 3-4 (A) 3.7 03:24:07 10° NW 03:31:05 85° SW 03:38:49 10° SE
NOSS 3-4 (C) 3.8 03:24:13 10° NW 03:31:11 85° SW 03:38:56 10° SE
USA 267 3.2 03:27:10 10° ENE 03:33:45 79° SE 03:36:58 33° SW
Cosmos 1707 Rocket 3.7 03:32:27 31° S 03:34:29 73° E 03:38:52 10° NNE
ADEOS Rocket 3.5 03:32:09 10° SSE 03:38:34 62° ENE 03:44:23 10° N
Meteor 1-5 Rocket 4.3 03:35:10 10° NNW 03:40:16 48° W 03:42:00 35° SW
NOSS 3-3 (A) 4.2 03:38:58 37° WSW 03:41:19 59° NW 03:48:05 10° NE
CZ-4B R/B 3.5 03:38:33 10° SE 03:41:20 28° ENE 03:44:13 10° N
NOSS 3-3 (C) 4.2 03:39:06 37° WSW 03:41:25 59° NW 03:48:11 10° NE
ERS-2 2.7 03:38:56 10° SSE 03:42:32 58° ENE 03:46:09 10° N
ATLAS 5 CENTAUR R/B 4.2 03:39:50 10° NW 03:42:48 16° N 03:46:02 10° NE
Cosmos 540 Rocket 3.9 03:38:54 16° S 03:42:53 60° ESE 03:47:59 10° NNE
MSX 3.7 03:38:54 10° NNE 03:44:42 77° WNW 03:48:33 22° SSW
Cosmos 1733 Rocket 3.1 03:42:42 10° N 03:47:04 75° ENE 03:51:23 10° SSE
Cosmos 44 Rocket 3.6 03:44:48 26° SSW 03:47:19 61° ESE 03:52:09 10° NE
Cosmos 44 4.3 03:46:58 26° WNW 03:47:56 28° NW 03:52:04 10° NNE
IRIDIUM 106 4.3 03:42:57 10° N 03:48:05 59° W 03:51:57 17° SSW
Cosmos 1743 3.9 03:46:03 10° N 03:49:43 43° ENE 03:53:21 10° SSE
Cosmos 990 Rocket 4.4 03:45:08 10° NW 03:49:56 38° WSW 03:54:43 10° S
PAYLOAD A 4.0 03:47:33 10° NNE 03:52:16 73° ESE 03:56:58 10° S
Meteor 1-10 Rocket 4.4 03:51:45 27° SW 03:54:48 55° WNW 04:00:37 10° N
ATLAS 2AS CENTAUR R/B 2.7 03:47:20 10° NW 03:54:52 75° SW 04:01:46 10° SSE
Cosmos 2173 Rocket 4.0 03:48:52 10° N 03:55:16 89° E 04:01:39 10° S
Landsat 5 3.6 03:51:41 10° S 03:56:07 57° W 04:00:28 10° NNW
Cosmos 2333 Rocket 4.1 03:51:49 10° SSE 03:56:41 29° ESE 04:01:34 10° NE
BREEZE M DEB (TANK) 4.4 03:42:39 10° WNW 03:56:52 41° SW 04:01:26 10° SSE
CZ-2C R/B 2.9 03:54:15 10° N 03:57:58 51° WNW 03:58:54 40° WSW
ADEOS II 3.5 03:55:02 10° NNW 03:58:41 19° WNW 03:59:16 19° WNW
SL-4 R/B 2.3 03:57:30 36° WSW 03:59:23 85° SSE 04:04:12 10° ENE
IDEFIX/ARIANE 42P 3.1 03:56:11 10° N 04:01:05 40° WNW 04:03:12 28° WSW
PSLV R/B 3.5 03:57:21 10° NNE 04:01:35 83° ESE 04:05:44 10° SSW
Cosmos 468 Rocket 4.3 03:59:52 30° WSW 04:02:11 49° WNW 04:07:18 10° NNE
Cosmos 1570 Rocket 4.1 03:58:30 14° SSW 04:03:07 85° ESE 04:08:31 10° NNE
BREEZE-M DEB (TANK) 3.5 03:59:36 22° SW 04:03:25 45° S 04:06:27 10° E
USA 276 2.2 04:03:18 51° WSW 04:03:46 59° SSW 04:06:57 10° ESE
Cosmos 967 Rocket 4.5 04:03:43 22° SW 04:08:07 75° NW 04:14:33 10° NE
Cosmos 1862 Rocket 3.6 04:04:58 10° S 04:09:21 83° E 04:13:43 10° N
BREEZE-M DEB (TANK) 3.1 04:08:00 33° WSW 04:09:28 88° SSE 04:17:34 10° E
USA 234 3.2 04:03:32 10° SE 04:10:00 64° SW 04:16:30 10° WNW
Cosmos 2228 Rocket 4.4 04:10:44 21° WNW 04:10:53 21° WNW 04:14:18 10° NNW
CZ-4C R/B 3.3 04:05:33 10° NW 04:12:31 67° NE 04:20:40 10° SE
H-2A R/B 2.6 04:10:19 10° SSW 04:14:27 39° W 04:18:41 10° NNW
ALOS 3.5 04:10:53 10° NNE 04:15:22 44° E 04:19:50 10° S
SAR-Lupe-4 4.1 04:11:58 10° SSE 04:15:30 62° ENE 04:19:04 10° N
USA 305 3.9 04:12:36 17° WNW 04:15:32 41° N 04:19:35 10° ENE
PKM 4.1 04:14:43 22° WNW 04:16:45 45° SW 04:20:22 10° SSE
Cosmos 1689 Rocket 4.3 04:14:51 10° SE 04:17:29 29° ENE 04:20:09 10° N
USA 306 3.9 04:16:52 16° WNW 04:19:59 41° N 04:24:02 10° ENE
COSMOS 2455 4.2 04:14:50 10° NNW 04:20:32 40° NE 04:26:11 10° ESE
Cosmos 2360 Rocket 2.2 04:15:02 10° SSW 04:20:38 85° WNW 04:26:21 10° NNE
Meteor 1-4 Rocket 3.9 04:21:08 21° WNW 04:21:13 21° WNW 04:23:58 10° NNW
CZ-2C R/B 2.5 04:18:03 10° N 04:23:12 70° WNW 04:28:22 10° SSW
Cosmos 1975 3.9 04:19:18 10° N 04:23:12 48° ENE 04:27:04 10° SSE
Cosmos 372 Rocket 4.0 04:21:53 10° NNW 04:26:55 55° WSW 04:31:53 10° S
Cosmos 2016 Rocket 3.9 04:20:56 10° NNW 04:27:04 79° W 04:33:09 10° S
Cosmos 1980 Rocket 3.9 04:29:06 12° WNW 04:32:04 17° NW 04:35:44 10° N
Cosmos 1000 Rocket 4.5 04:26:11 10° SSW 04:32:18 63° WNW 04:38:25 10° N
Cosmos 1484 Rocket 3.2 04:28:42 10° NNE 04:32:42 67° E 04:36:42 10° S
Cosmos 2061 Rocket 4.0 04:27:28 10° NNW 04:33:54 73° W 04:40:17 10° S
Cosmos 1666 4.2 04:31:29 10° NW 04:33:53 17° W 04:33:53 17° W
SAR-Lupe-1 4.0 04:30:59 10° SSE 04:34:34 85° WSW 04:38:10 10° NNW
Cosmos 1844 Rocket 2.8 04:30:26 10° NW 04:35:53 51° WSW 04:41:20 10° S
Cosmos 2233 Rocket 4.3 04:30:37 10° N 04:36:45 70° ENE 04:42:53 10° SSE
Cosmos 1515 4.0 04:34:01 10° S 04:37:46 70° E 04:41:34 10° NNE
Cosmos 2322 Rocket 2.8 04:36:12 14° WSW 04:40:36 39° NW 04:45:58 10° NNE
Cosmos 2278 Rocket 3.4 04:35:22 10° NNW 04:40:49 45° NE 04:46:14 10° SE
Cosmos 1844 3.8 04:39:18 10° NW 04:44:42 52° WSW 04:50:04 10° S
Meteor 1-31 Rocket 3.0 04:41:47 10° NNE 04:45:38 74° ESE 04:49:28 10° S
Okean 1 3.3 04:41:46 10° SSW 04:45:48 73° W 04:49:51 10° N
Lacrosse 5 3.2 04:41:24 10° WNW 04:45:59 32° N 04:50:33 10° ENE
ERBS 4.0 04:45:17 11° WNW 04:47:55 22° NNW 04:50:39 10° NE
COSMO-SKYMED 1 3.0 04:43:57 10° SSE 04:48:16 70° ENE 04:52:36 10° N
Cosmos 1864 Rocket 4.5 04:42:17 10° NNW 04:48:28 65° W 04:54:34 10° S
USA 307 3.7 04:45:23 10° WNW 04:49:30 46° NNE 04:53:36 10° E
Cosmos 1725 Rocket 4.0 04:43:36 10° NNW 04:49:44 65° W 04:55:49 10° S
Meteor 2-9 Rocket 4.1 04:45:01 10° NNW 04:50:31 85° W 04:55:53 10° S
Cosmos 2298 Rocket 4.2 04:46:36 10° NNW 04:51:45 51° WSW 04:56:50 10° S
Cosmos 1437 Rocket 2.9 04:48:53 10° SSW 04:52:36 50° WNW 04:56:24 10° N
deb Chang Zheng 4 3.5 04:48:22 10° N 04:52:39 67° WNW 04:56:52 10° SSW
USA 308 3.7 04:48:45 10° WNW 04:52:53 47° NNE 04:57:01 10° E
SL-16 R/B 3.2 04:48:33 12° WSW 04:52:59 29° NW 04:57:54 10° NNE
FALCON 9 DEB 3.8 04:53:27 12° W 04:56:30 46° NNW 04:59:50 10° ENE
Cosmos 1782 Rocket 3.6 04:56:28 10° N 05:00:58 87° WSW 05:05:25 10° S
Cosmos 1908 Rocket 3.8 04:57:51 10° NNW 05:02:10 48° W 05:06:28 10° SSW
Cosmos 841 Rocket 4.3 04:59:34 10° WSW 05:04:19 34° NW 05:09:07 10° N
Cosmos 1703 Rocket 3.5 05:01:21 10° SSW 05:05:40 72° WNW 05:10:02 10° N
Okean 1-7 2.9 05:02:01 10° SSW 05:06:16 77° W 05:10:32 10° N
Cosmos 2219 Rocket 2.3 05:02:51 10° SSW 05:08:32 87° ESE 05:14:16 10° NNE
CZ-4B R/B 2.8 05:05:38 10° NNE 05:09:16 79° ESE 05:12:51 10° S
Cosmos 1125 Rocket 3.6 05:05:47 10° NNW 05:10:57 55° WSW 05:16:04 10° S
Intercosmos 25 3.8 05:07:57 10° SW 05:11:05 30° WNW 05:13:58 10° N
CZ-4B R/B 2.7 05:11:15 10° SW 05:13:39 19° W 05:16:07 10° NW
CZ-4B R/B 4.2 05:09:30 10° N 05:13:49 58° WNW 05:18:12 10° SSW
Meteor 2-4 Rocket 3.8 05:10:09 10° S 05:15:34 81° E 05:20:58 10° NNE
USA 267 3.7 05:10:17 10° ENE 05:16:36 53° NNW 05:22:54 10° W
